EW1296 Weather Reports


time (UTC)temp
F
wind
direction
speed
knots
gust
knots
rain 1hr
in
rain 24hr
in
rain mn
in
humidity
%
barometer
mb
20260506235015 67 225 2.6 5.2 0.00 0.02 0.02 79 1007.7
20260506234535 67 203 1.7 5.2 0.00 0.02 0.02 79 1007.7
20260506234015 67 225 1.7 3.5 0.00 0.02 0.02 79 1007.7
20260506233516 67 225 1.7 3.5 0.00 0.02 0.02 79 1007.5
20260506233038 67 225 2.6 6.1 0.00 0.02 0.02 79 1007.5
20260506232515 67 203 0.9 4.3 0.00 0.02 0.02 79 1007.3
20260506232036 67 225 1.7 5.2 0.00 0.02 0.02 79 1007.5
20260506231516 67 225 2.6 5.2 0.00 0.02 0.02 79 1007.6
20260506231015 67 203 0.9 3.5 0.00 0.02 0.02 78 1007.5
20260506230515 67 248 1.7 4.3 0.00 0.02 0.02 78 1007.5
20260506230017 67 225 2.6 7.0 0.00 0.02 0.02 78 1007.5
20260506225658 67 225 2.6 5.2 0.00 0.02 0.02 78 1007.5
20260506225055 67 225 1.7 4.3 0.00 0.02 0.02 78 1007.4
20260506224515 68 225 2.6 6.1 0.00 0.02 0.02 78 1007.4
20260506224015 68 203 1.7 6.1 0.00 0.02 0.02 78 1007.3
20260506223517 67 225 2.6 7.0 0.00 0.02 0.02 78 1007.3
20260506223016 67 248 1.7 5.2 0.00 0.02 0.02 79 1007.2
20260506222515 67 225 3.5 7.8 0.00 0.02 0.02 79 1007.3
20260506222017 67 248 3.5 9.6 0.00 0.02 0.02 79 1007.3
20260506221515 67 203 4.3 10.4 0.00 0.02 0.02 80 1007.3
20260506221058 67 225 3.5 7.0 0.00 0.02 0.02 80 1007.3
20260506220515 67 225 3.5 7.0 0.00 0.02 0.02 80 1007.3
20260506220015 67 270 1.7 7.8 0.00 0.02 0.02 81 1007.3
20260506215535 66 248 1.7 3.5 0.00 0.02 0.02 81 1007.3
20260506215015 66 225 0.9 3.5 0.00 0.02 0.02 81 1007.2
20260506214515 66 203 2.6 5.2 0.00 0.02 0.02 81 1007.2
20260506214015 66 225 3.5 6.1 0.00 0.02 0.02 81 1007.2
20260506213515 66 203 2.6 6.1 0.00 0.02 0.02 81 1007.1
20260506213015 66 225 2.6 6.1 0.00 0.02 0.02 81 1007.0
20260506212517 66 225 2.6 7.0 0.00 0.02 0.02 81 1007.0
20260506212019 66 225 3.5 7.0 0.00 0.02 0.02 81 1007.0
20260506211517 66 225 3.5 8.7 0.00 0.02 0.02 81 1006.9
20260506211018 66 248 4.3 10.4 0.00 0.02 0.02 81 1006.9
20260506210515 66 225 3.5 8.7 0.00 0.02 0.02 81 1006.8
20260506210018 66 225 3.5 7.8 0.00 0.02 0.02 82 1006.7
20260506205517 66 225 4.3 9.6 0.00 0.02 0.02 81 1006.6
20260506205019 66 248 3.5 7.0 0.00 0.02 0.02 82 1006.6
20260506204517 66 225 4.3 9.6 0.00 0.02 0.02 82 1006.6
20260506204018 66 225 5.2 9.6 0.00 0.02 0.02 82 1006.7
20260506203517 66 203 3.5 9.6 0.00 0.02 0.02 82 1006.6
20260506203017 66 203 3.5 7.0 0.00 0.02 0.02 82 1006.7
20260506202518 65 203 3.5 8.7 0.00 0.02 0.02 81 1006.7
20260506202017 65 225 4.3 10.4 0.00 0.02 0.02 81 1006.8
20260506201519 66 225 4.3 10.4 0.00 0.02 0.02 81 1006.9
20260506201017 66 225 3.5 11.3 0.00 0.02 0.02 81 1007.0
20260506200518 66 225 5.2 12.2 0.00 0.02 0.02 81 1007.1
20260506200015 65 225 7.0 15.6 0.00 0.02 0.02 81 1007.1
20260506195517 65 225 4.3 8.7 0.00 0.02 0.02 82 1007.2
20260506195017 65 225 5.2 13.9 0.00 0.02 0.02 82 1007.2
20260506194538 65 225 4.3 13.0 0.00 0.02 0.02 82 1007.2
20260506194017 65 225 3.5 7.8 0.00 0.02 0.02 83 1007.2
20260506193517 65 225 5.2 9.6 0.00 0.02 0.02 82 1007.3
20260506193018 65 248 4.3 9.6 0.00 0.02 0.02 82 1007.3
20260506192517 65 225 7.0 14.8 0.00 0.02 0.02 82 1007.4
20260506192017 65 225 6.1 13.0 0.00 0.02 0.02 82 1007.4
20260506191517 65 248 7.0 13.9 0.00 0.02 0.02 83 1007.5
20260506191017 65 248 6.1 13.9 0.00 0.02 0.02 83 1007.4
20260506190517 65 225 5.2 12.2 0.00 0.02 0.02 84 1007.4
20260506190018 64 225 5.2 12.2 0.00 0.02 0.02 84 1007.5
20260506185515 63 225 2.6 7.0 0.00 0.02 0.02 83 1007.6
20260506185037 63 225 3.5 7.8 0.00 0.02 0.02 82 1007.6
20260506184517 63 225 1.7 6.1 0.00 0.02 0.02 82 1007.6
20260506184017 64 225 1.7 3.5 0.00 0.02 0.02 81 1007.6
20260506183517 63 0.0 3.5 0.00 0.02 0.02 80 1007.5
20260506183017 63 113 0.9 2.6 0.00 0.02 0.02 80 1007.4
20260506182517 64 113 2.6 6.1 0.00 0.02 0.02 79 1007.6
20260506182017 64 135 1.7 5.2 0.01 0.02 0.02 78 1007.8
20260506181518 64 135 1.7 6.1 0.01 0.02 0.02 78 1007.8
20260506181017 65 135 1.7 5.2 0.01 0.02 0.02 78 1008.0
20260506180518 65 113 1.7 5.2 0.01 0.02 0.02 78 1007.9
20260506180017 65 158 0.9 3.5 0.01 0.02 0.02 78 1007.8
20260506175537 66 135 1.7 6.1 0.01 0.02 0.02 77 1007.8
20260506175017 67 135 3.5 8.7 0.01 0.02 0.02 76 1007.8
20260506174517 68 135 1.7 4.3 0.01 0.02 0.02 79 1007.8
20260506174017 68 0.0 2.6 0.01 0.02 0.02 79 1007.9
20260506173537 67 0.0 1.7 0.01 0.02 0.02 79 1007.9
20260506173017 67 225 1.7 6.1 0.02 0.02 0.02 79 1007.8
20260506172518 67 225 3.5 7.8 0.02 0.02 0.02 78 1008.0
20260506172039 67 225 3.5 8.7 0.01 0.01 0.01 78 1008.0
20260506171537 67 225 3.5 7.8 0.01 0.01 0.01 78 1008.1
20260506171017 67 225 5.2 9.6 0.01 0.01 0.01 77 1008.5
20260506170518 67 225 5.2 11.3 0.01 0.01 0.01 77 1008.6
20260506170017 67 225 4.3 12.2 0.01 0.01 0.01 78 1008.7
20260506165517 67 225 4.3 10.4 0.01 0.01 0.01 77 1009.0
20260506165017 67 225 6.1 12.2 0.01 0.01 0.01 76 1009.1
20260506164517 67 225 5.2 9.6 0.01 0.01 0.01 76 1009.0
20260506164017 67 225 6.1 10.4 0.01 0.01 0.01 74 1008.9
20260506163518 67 203 5.2 12.2 0.01 0.01 0.01 73 1009.0
20260506163017 68 225 5.2 10.4 0.00 0.00 0.00 72 1009.2
20260506162518 69 225 5.2 10.4 0.00 0.00 0.00 70 1009.1
20260506162038 69 225 7.0 13.0 0.00 0.00 0.00 69 1009.2
20260506161517 70 225 6.1 11.3 0.00 0.00 0.00 66 1009.4
20260506161017 70 225 5.2 11.3 0.00 0.00 0.00 63 1009.5
20260506160518 71 225 6.1 13.9 0.00 0.00 0.00 61 1009.3
20260506160017 72 225 7.0 14.8 0.00 0.00 0.00 60 1009.4
20260506155517 72 225 5.2 13.0 0.00 0.00 0.00 59 1009.4
20260506155018 72 225 5.2 13.9 0.00 0.00 0.00 59 1009.4
20260506154517 72 248 7.0 13.0 0.00 0.00 0.00 60 1009.3
20260506154017 71 225 6.1 14.8 0.00 0.00 0.00 61 1009.3
20260506153517 71 248 7.8 17.4 0.00 0.00 0.00 61 1009.3
20260506153017 71 225 7.0 15.6 0.00 0.00 0.00 61 1009.2
20260506152517 71 248 8.7 13.9 0.00 0.00 0.00 61 1009.4
20260506152017 71 225 7.8 14.8 0.00 0.00 0.00 61 1009.5
20260506151517 71 225 7.8 13.0 0.00 0.00 0.00 61 1009.6
20260506151017 72 225 7.0 16.5 0.00 0.00 0.00 61 1009.6
20260506150516 72 225 7.8 16.5 0.00 0.00 0.00 61 1009.6
20260506150017 72 225 4.3 13.0 0.00 0.00 0.00 61 1009.6
20260506145516 72 225 2.6 9.6 0.00 0.00 0.00 62 1009.6
20260506145018 72 225 1.7 7.8 0.00 0.00 0.00 63 1009.7
20260506144517 72 225 1.7 7.0 0.00 0.00 0.00 63 1009.6
20260506144016 71 203 0.9 4.3 0.00 0.00 0.00 65 1009.6
20260506143517 70 203 0.9 3.5 0.00 0.00 0.00 65 1009.5
20260506143017 70 225 2.6 6.1 0.00 0.00 0.00 66 1009.5
20260506142558 70 203 1.7 5.2 0.00 0.00 0.00 65 1009.5
20260506142018 70 203 0.9 2.6 0.00 0.00 0.00 65 1009.5
20260506141518 70 248 1.7 7.0 0.00 0.00 0.00 65 1009.5
20260506141017 70 225 2.6 6.1 0.00 0.00 0.00 65 1009.5
20260506140517 70 135 0.9 1.7 0.00 0.00 0.00 65 1009.6
20260506140017 70 180 0.9 3.5 0.00 0.00 0.00 65 1009.6
20260506135517 70 158 1.7 7.0 0.00 0.00 0.00 66 1009.7
20260506135017 70 203 0.9 4.3 0.00 0.00 0.00 66 1009.7
20260506134538 70 225 1.7 6.1 0.00 0.00 0.00 66 1009.7
20260506134017 70 225 1.7 7.8 0.00 0.00 0.00 66 1009.7
20260506133517 69 180 1.7 5.2 0.00 0.00 0.00 66 1009.8
20260506133017 69 203 0.9 6.1 0.00 0.00 0.00 67 1009.8
20260506132516 69 158 1.7 5.2 0.00 0.00 0.00 68 1010.0
20260506132017 69 158 0.9 3.5 0.00 0.00 0.00 68 1010.0
20260506131517 69 180 1.7 6.1 0.00 0.00 0.00 69 1009.9
20260506131016 68 203 1.7 8.7 0.00 0.00 0.00 70 1009.8
20260506130536 68 225 5.2 9.6 0.00 0.00 0.00 69 1009.8
20260506130016 68 225 3.5 10.4 0.00 0.00 0.00 70 1009.7
20260506125516 67 225 6.1 13.0 0.00 0.00 0.00 71 1009.7
20260506125016 67 225 3.5 8.7 0.00 0.00 0.00 72 1009.7
20260506124538 67 225 3.5 10.4 0.00 0.00 0.00 72 1009.7
20260506124017 66 203 3.5 8.7 0.00 0.00 0.00 72 1009.7
20260506123516 66 225 3.5 8.7 0.00 0.00 0.00 72 1009.8
20260506123038 66 225 2.6 7.0 0.00 0.00 0.00 72 1009.9
20260506122617 67 225 1.7 7.8 0.00 0.00 0.00 72 1009.9
20260506122018 67 225 2.6 7.8 0.00 0.00 0.00 71 1009.8
20260506121517 67 203 2.6 6.1 0.00 0.00 0.00 71 1009.8
20260506121016 67 225 2.6 6.1 0.00 0.00 0.00 72 1010.0
20260506120536 67 180 1.7 7.8 0.00 0.00 0.00 73 1010.1
20260506120018 66 225 3.5 9.6 0.00 0.00 0.00 74 1010.1
20260506115516 66 225 3.5 13.0 0.00 0.00 0.00 74 1010.1
20260506115018 66 225 4.3 10.4 0.00 0.00 0.00 76 1010.1
20260506114536 65 248 2.6 7.8 0.00 0.00 0.00 77 1010.2
20260506114038 65 225 4.3 11.3 0.00 0.00 0.00 77 1010.2
20260506113517 65 225 3.5 9.6 0.00 0.00 0.00 77 1010.1
20260506113016 64 225 2.6 7.8 0.00 0.00 0.00 78 1010.2
20260506112016 64 203 3.5 10.4 0.00 0.00 0.00 79 1010.1
20260506111518 64 225 3.5 10.4 0.00 0.00 0.00 79 1010.1
20260506111017 64 225 3.5 11.3 0.00 0.00 0.00 80 1010.0
20260506110536 63 203 2.6 9.6 0.00 0.00 0.00 81 1010.0
20260506110037 63 225 3.5 10.4 0.00 0.00 0.00 81 1010.0
20260506105516 63 225 3.5 8.7 0.00 0.00 0.00 81 1010.0
20260506105016 63 225 2.6 7.8 0.00 0.00 0.00 82 1010.0
20260506104517 62 203 1.7 7.0 0.00 0.00 0.00 82 1010.1
20260506104016 62 225 1.7 7.0 0.00 0.00 0.00 82 1010.0
20260506103516 62 203 1.7 7.8 0.00 0.00 0.00 83 1009.9
20260506103037 62 203 3.5 8.7 0.00 0.00 0.00 83 1009.9
20260506102518 62 225 2.6 9.6 0.00 0.00 0.00 83 1010.0
20260506102016 62 203 3.5 10.4 0.00 0.00 0.00 83 1009.9
20260506101518 62 203 1.7 6.1 0.00 0.00 0.00 83 1009.9
20260506101016 62 203 2.6 10.4 0.00 0.00 0.00 83 1009.8
20260506100537 62 225 2.6 8.7 0.00 0.00 0.00 84 1009.9
20260506100017 61 225 2.6 8.7 0.00 0.00 0.00 84 1009.9
20260506095517 61 225 2.6 7.0 0.00 0.00 0.00 84 1009.8
20260506095016 61 203 2.6 7.8 0.00 0.00 0.00 84 1009.8
20260506094517 61 180 2.6 6.1 0.00 0.00 0.00 84 1009.7
20260506094057 61 203 2.6 11.3 0.00 0.00 0.00 84 1009.7
20260506093516 61 180 1.7 7.8 0.00 0.00 0.00 84 1009.7
20260506093016 61 180 1.7 7.8 0.00 0.00 0.00 84 1009.8
20260506092516 61 203 1.7 6.1 0.00 0.00 0.00 83 1009.8
20260506092036 61 180 0.9 4.3 0.00 0.00 0.00 83 1009.8
20260506091516 61 203 0.9 7.0 0.00 0.00 0.00 83 1009.9
20260506091017 62 158 1.7 7.0 0.00 0.00 0.00 83 1009.8
20260506090517 62 203 0.9 4.3 0.00 0.00 0.00 83 1010.0
20260506090038 62 225 1.7 6.1 0.00 0.00 0.00 83 1010.0
20260506085516 62 203 1.7 6.1 0.00 0.00 0.00 83 1010.0
20260506085016 62 203 1.7 7.8 0.00 0.00 0.00 83 1010.0
20260506084517 62 225 0.9 6.1 0.00 0.00 0.00 83 1010.0
20260506084016 62 203 1.7 4.3 0.00 0.00 0.00 83 1010.0
20260506083516 62 203 0.9 6.1 0.00 0.00 0.00 83 1009.9
20260506083058 62 158 0.9 5.2 0.00 0.00 0.00 83 1010.0
20260506082516 62 203 0.9 3.5 0.00 0.00 0.00 82 1010.0
20260506082016 62 180 0.9 3.5 0.00 0.00 0.00 82 1010.2
20260506081516 62 0.0 1.7 0.00 0.00 0.00 82 1010.1
20260506081017 62 203 0.9 2.6 0.00 0.00 0.00 82 1010.1
20260506080516 62 180 0.9 4.3 0.00 0.00 0.00 82 1010.1
20260506073518 62 180 0.9 3.5 0.00 0.00 0.00 81 1010.2
20260506073016 62 180 0.9 4.3 0.00 0.00 0.00 80 1010.2
20260506072516 62 203 0.9 4.3 0.00 0.00 0.00 80 1010.1
20260506072016 63 180 1.7 5.2 0.00 0.00 0.00 80 1010.2
20260506071516 63 225 0.9 2.6 0.00 0.00 0.00 79 1010.3
20260506071016 63 203 1.7 7.0 0.00 0.00 0.00 79 1010.3
20260506070517 63 180 0.9 5.2 0.00 0.00 0.00 79 1010.4
20260506062517 63 0.0 1.7 0.00 0.00 0.00 76 1010.3
20260506062016 63 180 0.9 3.5 0.00 0.00 0.00 76 1010.3
20260506061516 63 203 0.9 3.5 0.00 0.00 0.00 75 1010.2
20260506061016 63 158 0.9 4.3 0.00 0.00 0.00 75 1010.2
20260506060516 63 0.0 1.7 0.00 0.00 0.00 74 1010.2
20260506051016 65 180 1.7 7.8 0.00 0.00 0.00 71 1010.7
20260506050537 66 203 1.7 6.1 0.00 0.00 0.00 71 1010.7
20260506045016 66 180 1.7 7.8 0.00 0.00 0.00 70 1010.7
20260506044516 66 225 2.6 7.8 0.00 0.00 0.00 70 1010.8
20260506044016 66 225 3.5 11.3 0.00 0.00 0.00 69 1010.8
20260506043516 66 158 1.7 6.1 0.00 0.00 0.00 69 1010.8
20260506043016 67 180 1.7 6.1 0.00 0.00 0.00 68 1010.7
20260506042516 67 203 3.5 11.3 0.00 0.00 0.00 68 1010.7
20260506042017 67 225 3.5 7.8 0.00 0.00 0.00 68 1010.7
20260506041516 67 225 2.6 7.8 0.00 0.00 0.00 67 1010.7
20260506041016 67 225 3.5 11.3 0.00 0.00 0.00 67 1010.6
20260506040516 67 225 3.5 9.6 0.00 0.00 0.00 67 1010.7
20260506040016 67 225 4.3 14.8 0.00 0.00 0.00 67 1010.6
20260506035516 67 225 4.3 13.0 0.00 0.00 0.00 67 1010.6
20260506035017 67 225 5.2 10.4 0.00 0.00 0.00 66 1010.7
20260506034556 68 225 6.1 11.3 0.00 0.00 0.00 66 1010.8
20260506034016 68 225 6.1 11.3 0.00 0.00 0.00 66 1010.8
20260506033516 68 225 5.2 10.4 0.00 0.00 0.00 65 1010.6
20260506033016 68 225 6.1 13.9 0.00 0.00 0.00 65 1010.6
20260506032516 68 225 7.0 14.8 0.00 0.00 0.00 64 1010.7
20260506032016 68 225 6.1 14.8 0.00 0.00 0.00 64 1010.6
20260506031516 68 225 5.2 11.3 0.00 0.00 0.00 64 1010.5
20260506031017 68 225 7.0 18.2 0.00 0.00 0.00 64 1010.5
20260506030557 68 225 2.6 8.7 0.00 0.00 0.00 64 1010.5
20260506030017 68 225 3.5 8.7 0.00 0.00 0.00 64 1010.6
20260506025536 68 225 5.2 10.4 0.00 0.00 0.00 64 1010.5
20260506025016 67 248 5.2 12.2 0.00 0.00 0.00 64 1010.5
20260506024516 67 225 3.5 10.4 0.00 0.00 0.00 64 1010.5
20260506024017 67 225 3.5 9.6 0.00 0.00 0.00 64 1010.5
20260506023516 67 225 3.5 11.3 0.00 0.00 0.00 65 1010.5
20260506023016 67 225 3.5 9.6 0.00 0.00 0.00 65 1010.6
20260506022517 67 203 2.6 7.8 0.00 0.00 0.00 65 1010.6
20260506022017 67 225 3.5 8.7 0.00 0.00 0.00 65 1010.6
20260506021516 67 203 4.3 10.4 0.00 0.00 0.00 65 1010.6
20260506021036 67 203 3.5 10.4 0.00 0.00 0.00 65 1010.5
20260506020558 67 225 1.7 5.2 0.00 0.00 0.00 65 1010.5
20260506020017 67 180 1.7 6.1 0.00 0.00 0.00 64 1010.5
20260506015536 68 203 1.7 7.0 0.00 0.00 0.00 64 1010.5
20260506015016 68 225 4.3 10.4 0.00 0.00 0.00 64 1010.5
20260506014516 67 180 3.5 8.7 0.00 0.00 0.00 64 1010.6
20260506014016 67 203 3.5 13.0 0.00 0.00 0.00 64 1010.4
20260506013517 67 225 3.5 10.4 0.00 0.00 0.00 64 1010.4
20260506013016 67 203 3.5 8.7 0.00 0.00 0.00 63 1010.4
20260506012517 68 225 2.6 8.7 0.00 0.00 0.00 63 1010.3
20260506012016 68 203 1.7 6.1 0.00 0.00 0.00 62 1010.3
20260506011516 68 203 0.9 3.5 0.00 0.00 0.00 62 1010.3
20260506011016 68 225 1.7 7.0 0.00 0.00 0.00 62 1010.2
20260506010516 68 225 1.7 7.0 0.00 0.00 0.00 61 1010.1
20260506010016 69 225 1.7 5.2 0.00 0.00 0.00 61 1010.1
20260506005516 69 203 2.6 7.0 0.00 0.00 0.00 60 1010.0
20260506005016 69 225 1.7 7.8 0.00 0.00 0.00 60 1009.9
20260506004516 69 203 2.6 6.1 0.00 0.00 0.00 60 1009.9
20260506004037 69 203 2.6 7.0 0.00 0.00 0.00 60 1009.8
20260506003516 69 203 3.5 8.7 0.00 0.00 0.00 60 1009.8
20260506003017 69 225 1.7 6.1 0.00 0.00 0.00 60 1009.7
20260506002516 69 225 1.7 6.1 0.00 0.00 0.00 60 1009.5
20260506002016 69 225 0.9 3.5 0.00 0.00 0.00 60 1009.5
20260506001516 69 203 2.6 7.8 0.00 0.00 0.00 59 1009.5
20260506001016 69 203 0.9 7.8 0.00 0.00 0.00 60 1009.5
20260506000517 69 180 0.9 6.1 0.00 0.00 0.00 60 1009.4
20260506000017 69 158 0.9 4.3 0.00 0.00 0.00 60 1009.4
20260505235516 69 180 0.9 3.5 0.00 0.00 0.00 60 1009.3